Find Kosmos-2070

NORAD ID: 20555 Int'l Des: 1990-029 Owner: UNKS Country: SU operational
LEOCIRCULAR

Live Position

Loading 3D Globe...

About Kosmos-2070

Description loading...

Upcoming Passes

Passes for default location (London). Set your location on the main map for personalized predictions.

Altitude History

Loading altitude history...

Two-Line Element Set

1 20555U 90029G 26106.73065579 -.00000028 00000-0 -77846-4 0 9992
2 20555 73.9799 263.1374 0013077 59.6787 312.0499 12.52804378647712
Epoch: Apr 16, 2026 • Age: 20 hours

Current Status

Altitude 1457.2 km
Velocity 7.14 km/s
Sub-Earth Point 65.48°N, 0.67°W
Launch Date Apr 6, 1990
Age 36 years
Type other

Technical Details

Classification Payload
Mass 60.00 kg
Dry Mass 60.00 kg
Total Mass 60.00 kg
Length 0.80 m
Diameter 0.80 m
Span 0.80 m
Shape Poly
Manufacturer NPOPM
Bus Type Strela-1 11F625
Phase Status In Orbit
Owner/State UNKS/SU

Most Searched